{"data":{"norad_id":66077,"epoch":"2026-05-25T00:03:02.906208Z","epoch_age_seconds":70743,"freshness":"FRESH","line1":"1 66077U 25235V   26145.00211697  .00008932  00000+0  31330-3 0  9991","line2":"2 66077  53.1570 250.9209 0001333  87.4611 272.6542 15.30201430 34603","mean_motion":15.3020143,"eccentricity":0.0001333,"inclination_deg":53.157,"raan_deg":250.9209,"arg_perigee_deg":87.4611,"mean_anomaly_deg":272.6542,"bstar":0.0003133,"rev_number":3460,"period_min":94.105257763352,"perigee_km":474.29724843871,"apogee_km":476.12435096211,"semimajor_km":6853.3477997004,"source":"CELESTRAK","updated_at":"2026-05-25T13:38:21.024443Z"}}